Terminal Aerodrome Forecast
Issued by NWS Columbia, SC

Home | Current Version | Previous Version | Text Only | Print | Product List | Glossary On
Versions: 1 2 3 4 5 6 7 8 9 10 11 12 13 14 15 16 17 18 19 20 21 22 23 24 25 26 27 28 29 30 31 32 33 34 35 36 37 38 39 40 41 42 43 44 45 46 47 48 49 50
124
FTUS42 KCAE 210539
TAFAGS
TAF
KAGS 210539Z 2106/2206 21006KT P6SM SKC
     FM210800 VRB03KT 4SM BR OVC015
     FM211000 VRB03KT 1SM BR OVC006
      TEMPO 2111/2115 1/2SM -SHRA FG
     FM211500 VRB05KT 3SM -SHRA BR SCT007 OVC015=

USA.gov is the U.S. government's official web portal to all federal, state and local government web resources and services.